GW2522 Weather Reports


time (UTC)temp
C
wind
direction
speed
KPH
gust
KPH
rain 1hr
cm
rain 24hr
cm
rain mn
cm
humidity
%
barometer
mb
20260509190940 25 256 0.0 0.0 0.00 0.00 0.00 99 1004.3
20260509190437 25 249 0.0 0.0 0.00 0.00 0.00 99 1004.3
20260509185935 25 249 0.0 0.0 0.00 0.00 0.00 99 1004.2
20260509185432 25 245 0.0 0.0 0.00 0.00 0.00 99 1004.0
20260509184929 25 243 0.0 0.0 0.00 0.00 0.00 99 1004.2
20260509184427 25 274 0.0 1.6 0.00 0.00 0.00 99 1004.5
20260509183923 25 258 0.0 1.6 0.00 0.00 0.00 99 1004.4
20260509183417 25 250 0.0 0.0 0.00 0.00 0.00 99 1004.3
20260509182914 25 265 0.0 0.0 0.00 0.00 0.00 99 1004.3
20260509182411 25 252 0.0 1.6 0.00 0.00 0.00 99 1004.3
20260509181908 25 262 1.6 1.6 0.00 0.00 0.00 99 1004.5
20260509181406 25 249 0.0 0.0 0.00 0.00 0.00 99 1004.5
20260509180903 25 249 0.0 0.0 0.00 0.00 0.00 99 1004.5
20260509180358 26 248 0.0 0.0 0.00 0.00 0.00 99 1004.6
20260509175855 25 247 0.0 0.0 0.00 0.00 0.00 99 1004.4
20260509175351 26 249 0.0 0.0 0.00 0.00 0.00 99 1005.0
20260509174848 26 241 0.0 0.0 0.00 0.00 0.00 99 1004.8
20260509174344 26 243 0.0 0.0 0.00 0.00 0.00 99 1004.6
20260509173840 26 250 0.0 0.0 0.00 0.00 0.00 99 1004.7
20260509173335 26 248 0.0 0.0 0.00 0.00 0.00 99 1004.8
20260509172831 26 249 0.0 0.0 0.00 0.00 0.00 99 1004.6
20260509172328 26 240 0.0 0.0 0.00 0.00 0.00 99 1004.5
20260509171824 26 242 0.0 0.0 0.00 0.00 0.00 99 1004.7
20260509171320 26 245 0.0 0.0 0.00 0.00 0.00 99 1004.8
20260509170817 26 245 0.0 0.0 0.00 0.00 0.00 99 1004.8
20260509170313 26 240 0.0 0.0 0.00 0.00 0.00 99 1004.9
20260509165812 26 247 0.0 0.0 0.00 0.00 0.00 99 1005.2
20260509165307 26 244 0.0 0.0 0.00 0.00 0.00 99 1005.1
20260509164803 26 244 0.0 0.0 0.00 0.00 0.00 99 1005.2
20260509164300 26 250 0.0 0.0 0.00 0.00 0.00 99 1005.1
20260509163756 26 244 0.0 0.0 0.00 0.00 0.00 99 1005.1
20260509163253 26 243 0.0 0.0 0.00 0.00 0.00 99 1005.0
20260509162751 26 252 0.0 0.0 0.00 0.00 0.00 99 1005.2
20260509162245 26 249 0.0 0.0 0.00 0.00 0.00 99 1005.4
20260509161742 26 247 0.0 0.0 0.00 0.00 0.00 99 1005.3
20260509161238 26 242 0.0 1.6 0.00 0.00 0.00 99 1005.3
20260509160733 26 267 0.0 1.6 0.00 0.00 0.00 99 1005.3
20260509160230 26 247 0.0 0.0 0.00 0.00 0.00 99 1005.5
20260509155724 26 251 0.0 0.0 0.00 0.79 0.79 99 1005.1
20260509155221 26 256 0.0 0.0 0.00 0.79 0.79 99 1005.3
20260509154717 26 250 0.0 0.0 0.00 0.79 0.79 99 1005.2
20260509154215 26 264 0.0 0.0 0.00 0.79 0.79 99 1005.3
20260509153712 26 250 0.0 0.0 0.00 0.79 0.79 99 1005.3
20260509153208 26 251 0.0 0.0 0.00 0.79 0.79 99 1005.1
20260509152704 26 253 0.0 1.6 0.00 0.79 0.79 99 1005.4
20260509152201 26 256 1.6 3.2 0.00 0.79 0.79 99 1005.2
20260509151658 27 246 0.0 0.0 0.00 0.79 0.79 99 1005.3
20260509151155 27 216 0.0 1.6 0.00 0.79 0.79 99 1005.1
20260509150653 27 245 0.0 0.0 0.00 0.79 0.79 99 1004.9
20260509150151 27 235 0.0 0.0 0.00 0.79 0.79 99 1005.4
20260509145647 27 240 0.0 0.0 0.00 0.79 0.79 99 1005.3
20260509145142 27 251 0.0 1.6 0.00 0.79 0.79 99 1005.3
20260509144639 27 259 0.0 0.0 0.00 0.79 0.79 99 1005.0
20260509144136 27 247 0.0 0.0 0.00 0.79 0.79 99 1005.1
20260509143633 27 241 0.0 0.0 0.00 0.79 0.79 99 1005.0
20260509143131 27 235 0.0 0.0 0.00 0.79 0.79 99 1005.0
20260509142626 27 247 0.0 0.0 0.00 0.79 0.79 98 1005.0
20260509142123 27 251 0.0 0.0 0.00 0.79 0.79 98 1005.1
20260509141619 27 245 0.0 0.0 0.00 0.79 0.79 98 1004.9
20260509141115 27 240 0.0 0.0 0.18 0.79 0.79 97 1004.9
20260509140612 27 222 0.0 0.0 0.18 0.79 0.79 97 1004.6
20260509140110 27 241 0.0 1.6 2.59 0.76 0.76 96 1004.6
20260509135607 27 266 3.2 4.8 2.59 0.69 0.69 96 1004.5
20260509135105 27 253 0.0 1.6 1.55 0.30 0.30 95 1004.7
20260509134601 28 215 0.0 0.0 1.37 0.23 0.23 94 1004.7
20260509134059 28 189 0.0 1.6 0.18 0.03 0.03 93 1004.4
20260509133556 28 271 0.0 0.0 0.00 0.00 0.00 93 1004.7
20260509133053 27 239 0.0 0.0 0.00 0.00 0.00 92 1004.5
20260509132551 27 209 0.0 1.6 0.00 0.00 0.00 92 1004.4
20260509132049 27 250 0.0 1.6 0.00 0.00 0.00 92 1004.5
20260509131545 27 1 3.2 3.2 0.00 0.00 0.00 92 1004.5
20260509131042 27 2 1.6 3.2 0.00 0.00 0.00 92 1004.6
20260509130538 27 275 1.6 3.2 0.00 0.00 0.00 92 1004.4
20260509130035 27 250 1.6 3.2 0.00 0.00 0.00 92 1004.3
20260509125531 27 207 1.6 3.2 0.00 0.00 0.00 93 1004.1
20260509125028 28 238 0.0 3.2 0.00 0.00 0.00 93 1004.5
20260509124524 28 342 4.8 4.8 0.00 0.00 0.00 94 1004.5
20260509124022 28 322 3.2 4.8 0.00 0.00 0.00 94 1004.5
20260509123520 28 328 1.6 3.2 0.00 0.00 0.00 94 1004.4
20260509123015 27 261 0.0 3.2 0.00 0.00 0.00 94 1004.5
20260509122512 27 245 0.0 0.0 0.00 0.00 0.00 94 1004.1
20260509122009 28 241 0.0 0.0 0.00 0.00 0.00 93 1003.8
20260509121506 28 244 0.0 0.0 0.00 0.00 0.00 93 1004.0
20260509121004 28 254 0.0 0.0 0.00 0.00 0.00 92 1004.0
20260509120502 28 240 0.0 0.0 0.00 0.00 0.00 92 1003.9
20260509115959 28 241 0.0 0.0 0.00 0.00 0.00 92 1003.9
20260509115456 28 249 0.0 0.0 0.00 0.00 0.00 91 1004.0
20260509114954 28 235 0.0 1.6 0.00 0.00 0.00 91 1003.7
20260509114452 28 239 0.0 1.6 0.00 0.00 0.00 90 1003.9
20260509113951 28 232 1.6 1.6 0.00 0.00 0.00 89 1003.5
20260509113448 29 240 0.0 1.6 0.00 0.00 0.00 89 1003.4
20260509112945 29 236 0.0 1.6 0.00 0.00 0.00 88 1003.3
20260509112442 29 218 0.0 1.6 0.00 0.00 0.00 89 1003.3
20260509111938 29 182 1.6 1.6 0.00 0.00 0.00 88 1003.0
20260509111436 29 113 1.6 3.2 0.00 0.00 0.00 88 1003.0
20260509110933 29 128 1.6 4.8 0.00 0.00 0.00 88 1002.8
20260509110429 30 102 1.6 4.8 0.00 0.00 0.00 88 1002.8
20260509105927 30 105 4.8 4.8 0.00 0.00 0.00 87 1003.2
20260509105426 30 225 1.6 4.8 0.00 0.00 0.00 87 1002.9
20260509104922 30 189 1.6 4.8 0.00 0.00 0.00 87 1002.9
20260509104420 30 96 1.6 4.8 0.00 0.00 0.00 86 1002.9
20260509103917 30 133 6.4 9.7 0.00 0.00 0.00 86 1002.7
20260509103413 30 117 4.8 8.0 0.00 0.00 0.00 85 1002.6
20260509102912 30 121 6.4 9.7 0.00 0.00 0.00 86 1002.7
20260509102409 31 189 3.2 4.8 0.00 0.00 0.00 85 1002.4
20260509101905 31 231 0.0 1.6 0.00 0.00 0.00 84 1002.5
20260509101401 31 261 0.0 1.6 0.00 0.00 0.00 83 1002.3
20260509100859 31 284 0.0 1.6 0.00 0.00 0.00 82 1002.3
20260509100356 31 253 0.0 1.6 0.00 0.00 0.00 80 1002.2
20260509095853 32 250 0.0 0.0 0.00 0.00 0.00 81 1002.0
20260509095350 32 290 1.6 3.2 0.00 0.00 0.00 79 1001.9
20260509094847 32 259 0.0 1.6 0.00 0.00 0.00 77 1002.0
20260509094344 32 245 0.0 1.6 0.00 0.00 0.00 75 1001.7
20260509093841 32 310 1.6 1.6 0.00 0.00 0.00 74 1001.9
20260509093338 32 188 1.6 1.6 0.00 0.00 0.00 74 1001.8
20260509092837 32 212 1.6 1.6 0.00 0.00 0.00 75 1002.0
20260509092334 32 135 1.6 3.2 0.00 0.00 0.00 74 1001.8
20260509091832 33 214 0.0 1.6 0.00 0.00 0.00 76 1001.8
20260509091329 33 247 0.0 1.6 0.00 0.00 0.00 75 1001.8
20260509090826 32 13 0.0 1.6 0.00 0.00 0.00 73 1002.1
20260509090323 32 230 0.0 3.2 0.00 0.00 0.00 74 1001.7
20260509085820 32 115 3.2 4.8 0.00 0.00 0.00 73 1001.4
20260509085318 33 103 4.8 8.0 0.00 0.00 0.00 74 1001.6
20260509084814 33 1 4.8 8.0 0.00 0.00 0.00 74 1002.0
20260509084311 33 117 3.2 4.8 0.00 0.00 0.00 73 1001.7
20260509083809 33 343 1.6 1.6 0.00 0.00 0.00 74 1001.9
20260509083306 32 55 4.8 4.8 0.00 0.00 0.00 75 1001.9
20260509082802 33 97 6.4 8.0 0.00 0.00 0.00 75 1002.2
20260509082259 33 239 1.6 1.6 0.00 0.00 0.00 74 1002.3
20260509081756 32 295 1.6 3.2 0.00 0.00 0.00 73 1002.6
20260509081253 33 221 1.6 3.2 0.00 0.00 0.00 76 1002.7
20260509080751 33 135 4.8 4.8 0.00 0.00 0.00 76 1002.4
20260509080249 32 130 1.6 3.2 0.00 0.00 0.00 76 1002.6
20260509075747 32 98 4.8 8.0 0.00 0.00 0.00 77 1002.7
20260509075244 32 130 8.0 9.7 0.00 0.00 0.00 76 1002.5
20260509074740 32 264 1.6 8.0 0.00 0.00 0.00 76 1002.7
20260509074238 32 110 4.8 9.7 0.00 0.00 0.00 76 1002.5
20260509073734 33 326 3.2 4.8 0.00 0.00 0.00 76 1002.6
20260509073231 33 335 1.6 3.2 0.00 0.00 0.00 75 1002.7
20260509072727 33 294 0.0 4.8 0.00 0.00 0.00 74 1002.7
20260509072224 32 322 1.6 3.2 0.00 0.00 0.00 76 1002.6
20260509071721 32 95 3.2 8.0 0.00 0.00 0.00 78 1002.7
20260509071218 32 84 4.8 4.8 0.00 0.00 0.00 77 1002.7
20260509070715 32 128 1.6 4.8 0.00 0.00 0.00 79 1003.1
20260509070212 31 173 1.6 3.2 0.00 0.00 0.00 79 1003.2
20260509065708 32 64 1.6 3.2 0.00 0.00 0.00 78 1003.3
20260509065204 32 212 1.6 8.0 0.00 0.00 0.00 79 1003.8
20260509064701 31 80 4.8 4.8 0.00 0.00 0.00 80 1003.7
20260509064158 31 93 4.8 8.0 0.00 0.00 0.00 80 1003.8
20260509063655 32 74 6.4 9.7 0.00 0.00 0.00 78 1003.8
20260509063152 33 359 3.2 4.8 0.00 0.00 0.00 77 1004.2
20260509062649 33 202 1.6 9.7 0.00 0.00 0.00 77 1004.3
20260509062146 33 262 4.8 4.8 0.00 0.00 0.00 77 1004.2
20260509061643 32 274 1.6 3.2 0.00 0.00 0.00 78 1004.4
20260509061140 32 266 4.8 8.0 0.00 0.00 0.00 80 1004.3
20260509060638 31 159 1.6 8.0 0.00 0.00 0.00 80 1004.5
20260509060134 31 160 6.4 9.7 0.00 0.00 0.00 81 1004.6
20260509055629 32 339 1.6 3.2 0.00 0.00 0.00 79 1004.6
20260509055125 32 306 0.0 3.2 0.00 0.00 0.00 79 1004.7
20260509054623 32 357 4.8 8.0 0.00 0.00 0.00 77 1004.8
20260509054120 31 248 1.6 1.6 0.00 0.00 0.00 80 1004.8
20260509053619 31 257 0.0 3.2 0.00 0.00 0.00 81 1004.8
20260509053115 31 316 3.2 3.2 0.00 0.00 0.00 80 1004.8
20260509052613 31 281 1.6 4.8 0.00 0.00 0.00 79 1004.8
20260509052111 31 279 3.2 4.8 0.00 0.00 0.00 80 1005.1
20260509051608 31 357 1.6 3.2 0.00 0.00 0.00 81 1004.9
20260509051105 32 312 3.2 4.8 0.00 0.00 0.00 79 1005.2
20260509050602 31 295 1.6 3.2 0.00 0.00 0.00 81 1005.2
20260509050058 31 278 1.6 3.2 0.00 0.00 0.00 82 1005.4
20260509045556 31 315 4.8 4.8 0.00 0.00 0.00 84 1005.3
20260509045053 30 64 1.6 4.8 0.00 0.00 0.00 84 1005.2
20260509044550 30 49 4.8 4.8 0.00 0.00 0.00 84 1005.7
20260509044048 30 305 1.6 3.2 0.00 0.00 0.00 84 1005.5
20260509043544 30 35 3.2 3.2 0.00 0.00 0.00 84 1005.4
20260509043039 30 210 0.0 1.6 0.00 0.00 0.00 84 1005.8
20260509042536 30 301 1.6 1.6 0.00 0.00 0.00 83 1005.8
20260509042032 30 42 3.2 4.8 0.00 0.00 0.00 84 1005.9
20260509041529 30 40 1.6 3.2 0.00 0.00 0.00 84 1006.0
20260509041027 30 275 1.6 4.8 0.00 0.00 0.00 84 1006.2
20260509040525 30 356 1.6 3.2 0.00 0.00 0.00 86 1006.1
20260509040021 29 339 4.8 8.0 0.00 0.00 0.00 86 1006.0
20260509035518 29 32 4.8 8.0 0.00 0.00 0.00 85 1006.0
20260509035015 29 31 6.4 11.3 0.00 0.00 0.00 86 1006.3
20260509034513 29 358 4.8 4.8 0.00 0.00 0.00 86 1006.2
20260509034010 29 359 4.8 8.0 0.00 0.00 0.00 87 1006.1
20260509033507 30 317 1.6 4.8 0.00 0.00 0.00 87 1006.5
20260509033004 30 294 3.2 4.8 0.00 0.00 0.00 86 1006.5
20260509032501 30 257 1.6 3.2 0.00 0.00 0.00 86 1006.6
20260509031958 29 272 1.6 1.6 0.00 0.00 0.00 86 1006.6
20260509031455 29 281 1.6 4.8 0.00 0.00 0.00 88 1006.6
20260509030952 28 245 1.6 3.2 0.00 0.00 0.00 92 1006.6
20260509030450 27 348 1.6 3.2 0.00 0.00 0.00 96 1006.7
20260509025947 26 227 0.0 1.6 0.00 0.00 0.00 99 1006.8
20260509025443 26 245 3.2 4.8 0.00 0.00 0.00 99 1006.8
20260509024938 26 272 1.6 3.2 0.00 0.00 0.00 99 1007.2
20260509024434 26 249 1.6 4.8 0.00 0.00 0.00 99 1007.1
20260509023931 26 228 1.6 3.2 0.00 0.00 0.00 99 1007.1
20260509023429 25 252 0.0 3.2 0.00 0.00 0.00 99 1007.0
20260509022925 25 276 0.0 4.8 0.00 0.00 0.00 99 1007.1
20260509022423 25 261 0.0 1.6 0.00 0.00 0.00 99 1006.9
20260509021920 25 278 0.0 1.6 0.00 0.00 0.00 99 1006.8
20260509021417 25 346 3.2 3.2 0.00 0.00 0.00 99 1007.2
20260509020914 25 189 1.6 3.2 0.00 0.00 0.00 99 1007.1
20260509020412 25 257 0.0 1.6 0.00 0.00 0.00 99 1007.1
20260509015909 25 26 1.6 3.2 0.00 0.00 0.00 99 1007.0
20260509015408 25 242 0.0 1.6 0.00 0.00 0.00 99 1007.3
20260509014904 25 14 1.6 3.2 0.00 0.00 0.00 99 1007.3
20260509014401 25 298 0.0 0.0 0.00 0.00 0.00 99 1007.1
20260509013857 24 213 0.0 3.2 0.00 0.00 0.00 99 1007.2
20260509013354 25 260 0.0 1.6 0.00 0.00 0.00 99 1007.0
20260509012849 24 258 0.0 0.0 0.00 0.00 0.00 99 1006.8
20260509012347 24 256 0.0 3.2 0.00 0.00 0.00 99 1006.7
20260509011844 24 282 0.0 1.6 0.00 0.00 0.00 99 1006.9
20260509011341 24 289 1.6 3.2 0.00 0.00 0.00 99 1006.9
20260509010839 25 291 0.0 1.6 0.00 0.00 0.00 99 1006.8
20260509010337 25 258 0.0 0.0 0.00 0.00 0.00 99 1006.8
20260509005833 25 289 1.6 3.2 0.00 0.00 0.00 99 1006.6
20260509005331 25 293 0.0 1.6 0.00 0.00 0.00 99 1006.6
20260509004826 25 271 1.6 3.2 0.00 0.00 0.00 99 1006.7
20260509004322 25 250 0.0 3.2 0.00 0.00 0.00 99 1006.8
20260509003820 24 261 0.0 0.0 0.00 0.00 0.00 99 1006.8
20260509003318 24 291 1.6 3.2 0.00 0.00 0.00 99 1006.6
20260509002815 24 287 1.6 3.2 0.00 0.00 0.00 99 1006.8
20260509002312 24 308 0.0 1.6 0.00 0.00 0.00 99 1006.5
20260509001810 24 264 0.0 3.2 0.00 0.00 0.00 99 1006.2
20260509001305 24 248 0.0 0.0 0.00 0.00 0.00 99 1006.5
20260509000803 24 256 0.0 1.6 0.00 0.00 0.00 99 1006.3
20260509000303 23 276 1.6 1.6 0.00 0.00 0.00 99 1006.2
20260508235757 24 258 0.0 1.6 0.00 0.00 0.00 99 1006.3
20260508235253 24 262 0.0 1.6 0.00 0.00 0.00 99 1006.2
20260508234751 23 246 0.0 0.0 0.00 0.00 0.00 99 1006.0
20260508234246 23 267 1.6 1.6 0.00 0.00 0.00 99 1005.9
20260508233741 23 281 0.0 3.2 0.00 0.00 0.00 99 1005.9
20260508233239 23 251 0.0 0.0 0.00 0.00 0.00 99 1005.8
20260508232736 23 248 0.0 0.0 0.00 0.00 0.00 99 1005.6
20260508232232 23 247 0.0 1.6 0.00 0.00 0.00 99 1005.9
20260508231731 23 262 0.0 1.6 0.00 0.00 0.00 99 1006.0
20260508231227 23 270 1.6 3.2 0.00 0.00 0.00 99 1005.6
20260508230724 23 280 1.6 3.2 0.00 0.00 0.00 99 1005.6
20260508230220 23 251 0.0 1.6 0.00 0.00 0.00 99 1005.6
20260508225718 23 252 1.6 1.6 0.00 0.00 0.00 99 1005.4
20260508225214 23 275 0.0 1.6 0.00 0.00 0.00 99 1005.3
20260508224712 23 265 1.6 1.6 0.00 0.00 0.00 99 1005.4
20260508224210 23 260 0.0 1.6 0.00 0.00 0.00 99 1005.4
20260508223707 23 264 0.0 1.6 0.00 0.00 0.00 99 1005.4
20260508223204 23 267 0.0 0.0 0.00 0.00 0.00 99 1005.2
20260508222701 23 266 3.2 3.2 0.00 0.00 0.00 99 1005.2
20260508222159 23 275 0.0 3.2 0.00 0.00 0.00 99 1005.0
20260508221655 23 252 0.0 0.0 0.00 0.00 0.00 99 1004.9
20260508221150 23 267 0.0 3.2 0.00 0.00 0.00 99 1004.8
20260508220647 23 286 1.6 1.6 0.00 0.00 0.00 99 1005.0
20260508220144 23 252 0.0 1.6 0.00 0.00 0.00 99 1004.9
20260508215640 23 250 0.0 0.0 0.00 0.00 0.00 99 1004.9
20260508215137 23 244 0.0 1.6 0.00 0.00 0.00 99 1004.8
20260508214634 23 260 1.6 3.2 0.00 0.00 0.00 99 1004.7
20260508214131 23 251 0.0 1.6 0.00 0.00 0.00 99 1004.5
20260508213628 23 276 1.6 3.2 0.00 0.00 0.00 99 1004.5
20260508213124 23 252 0.0 1.6 0.00 0.00 0.00 99 1004.7
20260508212621 23 257 0.0 0.0 0.00 0.00 0.00 99 1004.7
20260508212117 23 252 0.0 1.6 0.00 0.00 0.00 99 1004.7
20260508211612 23 257 0.0 1.6 0.00 0.00 0.00 99 1004.8
20260508211109 24 262 0.0 1.6 0.00 0.00 0.00 99 1004.9
20260508210606 24 257 0.0 1.6 0.00 0.00 0.00 99 1004.9
20260508210103 24 273 0.0 1.6 0.00 0.00 0.00 99 1004.7
20260508205600 23 251 0.0 0.0 0.00 0.00 0.00 99 1004.8
20260508205057 23 250 0.0 0.0 0.00 0.00 0.00 99 1004.6
20260508204553 24 256 0.0 0.0 0.00 0.00 0.00 99 1004.6
20260508204049 23 247 0.0 0.0 0.00 0.00 0.00 99 1004.8
20260508203545 23 254 0.0 0.0 0.00 0.00 0.00 99 1005.0
20260508203041 23 253 0.0 0.0 0.00 0.00 0.00 99 1004.8
20260508202538 23 253 1.6 1.6 0.00 0.00 0.00 99 1004.9
20260508202035 23 255 0.0 0.0 0.00 0.00 0.00 99 1004.8
20260508201532 23 258 0.0 1.6 0.00 0.00 0.00 99 1004.8
20260508201028 23 264 1.6 1.6 0.00 0.00 0.00 99 1004.7
20260508200526 23 253 0.0 0.0 0.00 0.00 0.00 99 1004.9
20260508200021 23 259 0.0 1.6 0.00 0.00 0.00 99 1005.1
20260508195518 24 271 0.0 1.6 0.00 0.00 0.00 99 1004.8
20260508195014 24 256 0.0 0.0 0.00 0.00 0.00 99 1005.2
20260508194512 24 265 1.6 3.2 0.00 0.00 0.00 99 1005.1
20260508194009 24 252 0.0 1.6 0.00 0.00 0.00 99 1004.9
20260508193505 24 266 3.2 3.2 0.00 0.00 0.00 99 1005.1
20260508193002 24 261 0.0 1.6 0.00 0.00 0.00 99 1005.1
20260508192458 24 256 1.6 1.6 0.00 0.00 0.00 99 1005.0
20260508191955 24 250 0.0 1.6 0.00 0.00 0.00 99 1005.1
20260508191452 23 268 1.6 1.6 0.00 0.00 0.00 99 1004.8